THOR ABLESTAR DEB, 409

Orbit data source: Space-Track

THOR ABLESTAR DEB, 409 is space debris in LEO originally from a launch on Thu, 29 Jun 1961 UTC launched from the Air Force Eastern Test Range (AFETR). Debris objects in space refer to the collection of defunct objects orbiting the Earth. Examples of debris include non-operational satellites, rocket bodies, and fragments generated from explosions, collisions, or faulty payload assembly.

Loading next visibility...
Identifier
409, 1961-015EJ
Orbit
LEO
Country
Flag of USUS
Related business
Manufacturer
Unknown
Mission
Spacecraft
Bus & Motor
Unknown
Mass
Unknown
Launch date (UTC)
1961-06-29 (65 years ago)
Launch vehicle
Unknown
Launch site
Air Force Eastern Test Range (AFETR)
Object type
Payload
Rocket body
Debris
Shape & HBR
Unknown shape, 0.1 m
Radar Cross Section
Medium (>0.1 m² and <1 m²)

Expand to show TLE details & history
Last TLE update: 1 day ago

TLE from 1 day ago
0 THOR ABLESTAR DEB
1 00409U 61015EJ  26235.23175451  .00000727  00000-0  31439-3 0  9991
2 00409  66.7126 174.6019 0057637 132.4954 228.1035 14.29087056350884
Epoch: 2026-08-23T05:33Z
TLE epoch observation values (Epoch: 2026-08-23T05:33:43.589Z)
Latitude
-0.00002°
Longitude
119.6395°
Altitude
824.634 km
Speed
7.427 km/s
True Right ascension
11h 38m 24s
True Declination
0° 00' 00"
Sunlit
Object was in daylight at epoch
Visualization orbit readout
Latitude
Unknown
Longitude
Unknown
Altitude
Unknown
Speed
Unknown
Apparent Right ascension
Unknown
Apparent Declination
Unknown
Sunlit
N/A
Visualization observer readout
Local Sidereal Time
00:45:39
Azimuth
Unknown
Elevation
Unknown
Doppler factor
Unknown
Orbital elements
Apogee altitude
834.491 km
Perigee altitude
751.825 km
Semi-major axis
7,171.295 km
Eccentricity
0.00576
Inclination
66.7126°
RAAN
174.6019°
Arg. of periapsis
132.4954°
True anomaly
227.61424°
Mean anomaly
228.1035°
Eccentric anomaly
227.85863°
Mean motion
3.57394 °/min
Orbital period
100.73 mins
BSTAR
0.00031439
Loading maneuver chart data...
Computing Atmospheric mass density...
Loading historical data...
Loading historical data...
Loading historical data...
Loading historical data...
Loading historical data...
Loading historical data...
Loading historical data...

Documentation

Showing up to 5 results
|